Weather History for Superior, WI

Change the Weather History Date:

Tuesday, April 23, 2013

  Actual Average Record
Temperature  
Mean Temperature 36 °F -  
Max Temperature 42 °F 49 °F 77 °F (1998)
Min Temperature 30 °F 33 °F 21 °F (1964)
Degree Days  
Heating Degree Days 30    
Moisture  
Dew Point 22 °F    
Average Humidity 63    
Maximum Humidity 100    
Minimum Humidity 36    
Precipitation  
Precipitation 0.08 in - - ()
Sea Level Pressure  
Sea Level Pressure 30.08 in    
Wind  
Wind Speed 5 mph (NNW)    
Max Wind Speed 15 mph    
Max Gust Speed 18 mph    
Visibility 8 miles    
Events Snow    
Averages and records for this station are not official NWS values.
T = Trace of Precipitation, MM = Missing Value Source: NWS Daily Summary

Daily Weather History Graph

Daily Weather History Graph

Search for Another Location

Airport:

Trip Planner

Search our weather history database for the weather conditions in past years. The results will help you decide how hot, cold, wet, or windy it might be!

Date:

Astronomy

Apr. 23, 2013 Rise Set
Actual Time 6:06 AM CDT 8:07 PM CDT
Civil Twilight 5:33 AM CDT 8:40 PM CDT
Nautical Twilight 4:53 AM CDT 9:20 PM CDT
Astronomical Twilight 4:09 AM CDT 10:05 PM CDT
Moon 5:57 PM CDT 4:43 AM CDT
Length of Visible Light 15h 06m
Length of Day
14h 01m
Waxing Gibbous, 94% of the Moon is Illuminated
Apr 23
Waxing Gibbous
Apr 25
Full
May 2
Last Quarter
May 9
New
May 17
First Quarter

Hourly Weather History & Observations

Time (CDT) Temp. Windchill Dew Point Humidity Pressure Visibility Wind Dir Wind Speed Gust Speed Precip Events Conditions
12:15 AM 32.0 °F 28.7 °F 31.8 °F 99% 30.17 in 2.0 mi North 3.5 mph - 0.01 in Snow Light Snow
12:35 AM 32.0 °F 28.7 °F 32.0 °F 100% 30.17 in 2.0 mi North 3.5 mph - 0.02 in   Overcast
12:55 AM 32.0 °F 28.7 °F 32.0 °F 100% 30.17 in 1.2 mi North 3.5 mph - 0.03 in Snow Light Snow
1:15 AM 32.0 °F 28.7 °F 32.0 °F 100% 30.16 in 1.8 mi North 3.5 mph - 0.01 in Snow Light Snow
1:35 AM 32.0 °F 26.4 °F 31.6 °F 99% 30.15 in 2.0 mi NE 5.8 mph - 0.01 in Snow Light Snow
1:55 AM 31.8 °F 27.3 °F 31.6 °F 99% 30.15 in 1.5 mi NE 4.6 mph - 0.02 in   Overcast
2:15 AM 31.8 °F 28.5 °F 31.6 °F 99% 30.14 in 2.0 mi North 3.5 mph - 0.01 in   Overcast
2:35 AM 31.8 °F 28.5 °F 31.6 °F 99% 30.14 in 2.0 mi North 3.5 mph - 0.01 in   Overcast
2:55 AM 31.6 °F 28.3 °F 31.1 °F 98% 30.14 in 3.0 mi North 3.5 mph - 0.02 in   Overcast
3:15 AM 31.6 °F 28.3 °F 31.1 °F 98% 30.14 in 2.5 mi North 3.5 mph - N/A   Overcast
3:35 AM 31.6 °F 27.0 °F 30.9 °F 97% 30.14 in 3.0 mi North 4.6 mph - N/A   Overcast
3:55 AM 31.6 °F 27.0 °F 30.7 °F 96% 30.14 in 3.0 mi North 4.6 mph - N/A   Overcast
4:15 AM 31.6 °F 28.3 °F 30.7 °F 96% 30.13 in 2.5 mi North 3.5 mph - N/A   Overcast
4:35 AM 31.5 °F - 30.7 °F 97% 30.12 in 4.0 mi Calm Calm - N/A   Overcast
5:15 AM 31.1 °F 26.4 °F 30.2 °F 96% 30.11 in 3.0 mi North 4.6 mph - 0.01 in   Overcast
5:35 AM 31.1 °F - 30.0 °F 96% 30.11 in 7.0 mi Calm Calm - 0.01 in   Overcast
5:55 AM 31.1 °F - 29.8 °F 95% 30.11 in 10.0 mi Calm Calm - 0.01 in   Overcast
6:15 AM 30.7 °F - 29.1 °F 94% 30.11 in 10.0 mi Calm Calm - N/A   Overcast
6:35 AM 30.6 °F - 28.9 °F 94% 30.11 in 10.0 mi Calm Calm - N/A   Overcast
6:55 AM 31.1 °F 27.7 °F 28.8 °F 91% 30.12 in 10.0 mi NW 3.5 mph - N/A   Overcast
7:15 AM 31.6 °F 28.3 °F 28.8 °F 89% 30.12 in 10.0 mi North 3.5 mph - N/A   Overcast
7:35 AM 31.1 °F 26.4 °F 28.4 °F 90% 30.13 in 10.0 mi NNW 4.6 mph - N/A   Overcast
7:55 AM 31.3 °F 27.9 °F 28.4 °F 89% 30.14 in 10.0 mi NW 3.5 mph - N/A   Overcast
8:15 AM 31.6 °F 28.3 °F 28.9 °F 90% 30.14 in 10.0 mi North 3.5 mph - N/A   Overcast
8:35 AM 32.2 °F 27.7 °F 27.9 °F 84% 30.12 in 10.0 mi North 4.6 mph - N/A   Overcast
8:55 AM 32.9 °F 28.5 °F 27.3 °F 80% 30.12 in 10.0 mi NNW 4.6 mph - N/A   Overcast
9:15 AM 33.3 °F 28.9 °F 26.6 °F 77% 30.12 in 10.0 mi North 4.6 mph - N/A   Scattered Clouds
9:35 AM 33.6 °F 29.4 °F 25.9 °F 73% 30.11 in 10.0 mi NNW 4.6 mph - N/A   Clear
9:55 AM 34.5 °F 29.4 °F 24.4 °F 67% 30.12 in 10.0 mi NNW 5.8 mph - N/A   Clear
10:15 AM 35.2 °F 28.8 °F 22.1 °F 59% 30.10 in 10.0 mi NNW 8.1 mph 16.1 mph N/A   Clear
10:35 AM 36.0 °F 28.0 °F 21.4 °F 55% 30.10 in 10.0 mi North 11.5 mph - N/A   Clear
10:55 AM 36.7 °F 29.9 °F 20.3 °F 52% 30.10 in 10.0 mi NNW 9.2 mph - N/A   Scattered Clouds
11:15 AM 37.4 °F 29.3 °F 18.5 °F 46% 30.10 in 10.0 mi North 12.7 mph 17.3 mph N/A   Scattered Clouds
11:35 AM 37.8 °F 31.3 °F 17.4 °F 44% 30.10 in 10.0 mi NNW 9.2 mph - N/A   Clear
11:55 AM 38.3 °F 32.5 °F 17.6 °F 43% 30.09 in 10.0 mi North 8.1 mph - N/A   Scattered Clouds
12:15 PM 38.5 °F 32.1 °F 17.2 °F 42% 30.08 in 10.0 mi NNW 9.2 mph - N/A   Scattered Clouds
12:35 PM 38.7 °F 31.4 °F 16.5 °F 41% 30.07 in 10.0 mi North 11.5 mph 16.1 mph N/A   Clear
12:55 PM 38.8 °F 32.6 °F 17.1 °F 41% 30.06 in 10.0 mi North 9.2 mph - N/A   Clear
1:15 PM 39.6 °F 33.0 °F 16.7 °F 40% 30.06 in 10.0 mi North 10.4 mph - N/A   Clear
1:35 PM 39.9 °F 32.1 °F 16.5 °F 39% 30.06 in 10.0 mi North 13.8 mph - N/A   Clear
1:55 PM 40.1 °F 34.7 °F 16.0 °F 38% 30.05 in 10.0 mi NNE 8.1 mph - N/A   Clear
2:15 PM 40.3 °F 35.5 °F 15.6 °F 37% 30.05 in 10.0 mi North 6.9 mph - N/A   Clear
2:35 PM 40.8 °F 35.0 °F 16.2 °F 37% 30.04 in 10.0 mi NNW 9.2 mph - N/A   Clear
2:55 PM 40.6 °F 36.0 °F 17.4 °F 39% 30.04 in 10.0 mi WNW 6.9 mph - N/A   Clear
3:15 PM 41.4 °F 34.7 °F 16.9 °F 37% 30.04 in 10.0 mi NW 11.5 mph 17.3 mph N/A   Scattered Clouds
3:35 PM 41.4 °F 33.6 °F 17.2 °F 38% 30.04 in 10.0 mi NW 15.0 mph 18.4 mph N/A   Scattered Clouds
3:55 PM 40.6 °F 34.8 °F 17.4 °F 39% 30.03 in 10.0 mi NW 9.2 mph - N/A   Clear
4:15 PM 41.4 °F 34.0 °F 16.3 °F 36% 30.02 in 10.0 mi NNW 13.8 mph - N/A   Clear
4:35 PM 41.7 °F 35.6 °F 16.7 °F 36% 30.02 in 10.0 mi NW 10.4 mph - N/A   Clear
4:55 PM 40.8 °F 35.0 °F 16.9 °F 38% 30.02 in 10.0 mi NNW 9.2 mph - N/A   Clear
5:15 PM 41.4 °F 38.4 °F 17.8 °F 39% 30.02 in 10.0 mi WNW 4.6 mph - N/A   Clear
5:35 PM 41.0 °F 35.2 °F 17.8 °F 39% 30.01 in 10.0 mi NW 9.2 mph - N/A   Clear
5:55 PM 41.5 °F 35.4 °F 16.3 °F 36% 30.01 in 10.0 mi West 10.4 mph - N/A   Clear
6:15 PM 41.2 °F 35.5 °F 17.2 °F 38% 30.01 in 10.0 mi WNW 9.2 mph - N/A   Clear
6:35 PM 41.0 °F 35.2 °F 17.2 °F 38% 30.01 in 10.0 mi WNW 9.2 mph - N/A   Clear
6:55 PM 40.3 °F 33.9 °F 18.7 °F 42% 30.01 in 10.0 mi NNW 10.4 mph - N/A   Clear
7:15 PM 40.8 °F 36.2 °F 16.3 °F 37% 30.01 in 10.0 mi WNW 6.9 mph - N/A   Clear
7:35 PM 39.2 °F 33.6 °F 18.0 °F 42% 30.01 in 10.0 mi WNW 8.1 mph - N/A   Clear
7:55 PM 38.7 °F 35.2 °F 18.1 °F 44% 30.01 in 10.0 mi WNW 4.6 mph - N/A   Clear
8:15 PM 38.1 °F 34.6 °F 15.6 °F 40% 30.01 in 10.0 mi West 4.6 mph - N/A   Clear
8:35 PM 37.0 °F 33.3 °F 15.8 °F 42% 30.01 in 10.0 mi WNW 4.6 mph - N/A   Clear
8:55 PM 36.0 °F 31.1 °F 16.2 °F 45% 30.01 in 10.0 mi WNW 5.8 mph - N/A   Clear
9:15 PM 35.1 °F 30.1 °F 16.0 °F 46% 30.01 in 10.0 mi West 5.8 mph - N/A   Clear
9:35 PM 34.3 °F 29.2 °F 15.8 °F 47% 30.02 in 10.0 mi West 5.8 mph - N/A   Clear
9:55 PM 33.8 °F 28.6 °F 15.6 °F 47% 30.02 in 10.0 mi West 5.8 mph - N/A   Clear
10:15 PM 32.9 °F 28.5 °F 16.5 °F 51% 30.02 in 10.0 mi WNW 4.6 mph - N/A   Clear
10:35 PM 33.1 °F 26.9 °F 16.0 °F 50% 30.01 in 10.0 mi WNW 6.9 mph - N/A   Clear
10:55 PM 32.0 °F 26.4 °F 15.8 °F 51% 30.01 in 10.0 mi West 5.8 mph - N/A   Clear
11:15 PM 32.0 °F 26.4 °F 15.8 °F 51% 30.01 in 10.0 mi West 5.8 mph - N/A   Clear
11:35 PM 31.8 °F 26.2 °F 16.2 °F 52% 30.02 in 10.0 mi WSW 5.8 mph - N/A   Clear
11:55 PM 30.0 °F 24.1 °F 16.7 °F 58% 30.01 in 10.0 mi SW 5.8 mph - N/A   Clear